| time (UTC) | temp C | wind direction | speed KPH | gust KPH | rain 1hr cm | rain 24hr cm | rain mn cm | humidity % | barometer mb |
| 20260509162129 | 25 | 201 | 0.0 | 3.2 | 0.00 | 0.00 | 0.00 | 77 | 1015.5 |
| 20260509161625 | 25 | 234 | 0.0 | 4.8 | 0.00 | 0.00 | 0.00 | 80 | 1015.5 |
| 20260509161120 | 25 | 245 | 0.0 | 6.4 | 0.00 | 0.00 | 0.00 | 80 | 1015.5 |
| 20260509160617 | 25 | 75 | 0.0 | 9.7 | 0.00 | 0.00 | 0.00 | 79 | 1015.5 |
| 20260509160112 | 25 | 212 | 3.2 | 8.0 | 0.00 | 0.00 | 0.00 | 78 | 1015.4 |
| 20260509155609 | 25 | 288 | 6.4 | 6.4 | 0.00 | 0.00 | 0.00 | 80 | 1015.5 |
| 20260509155105 | 25 | 174 | 1.6 | 8.0 | 0.00 | 0.00 | 0.00 | 81 | 1015.5 |
| 20260509154600 | 25 | 243 | 4.8 | 9.7 | 0.00 | 0.00 | 0.00 | 82 | 1015.2 |
| 20260509154058 | 24 | 277 | 1.6 | 6.4 | 0.00 | 0.00 | 0.00 | 84 | 1015.3 |
| 20260509153555 | 24 | 221 | 3.2 | 6.4 | 0.00 | 0.00 | 0.00 | 88 | 1015.4 |
| 20260509153052 | 24 | 45 | 3.2 | 6.4 | 0.00 | 0.00 | 0.00 | 86 | 1015.5 |
| 20260509152548 | 23 | 23 | 0.0 | 4.8 | 0.00 | 0.00 | 0.00 | 87 | 1015.7 |
| 20260509152046 | 23 | 279 | 0.0 | 1.6 | 0.00 | 0.00 | 0.00 | 88 | 1015.8 |
| 20260509151541 | 23 | 216 | 3.2 | 6.4 | 0.00 | 0.00 | 0.00 | 88 | 1015.8 |
| 20260509151039 | 23 | 71 | 0.0 | 3.2 | 0.00 | 0.00 | 0.00 | 88 | 1016.1 |
| 20260509150537 | 23 | 285 | 3.2 | 3.2 | 0.00 | 0.00 | 0.00 | 90 | 1016.1 |
| 20260509150035 | 23 | 270 | 0.0 | 3.2 | 0.00 | 0.00 | 0.00 | 90 | 1016.3 |
| 20260509145530 | 23 | 246 | 0.0 | 3.2 | 0.00 | 0.00 | 0.00 | 90 | 1016.2 |
| 20260509145025 | 23 | 270 | 0.0 | 1.6 | 0.00 | 0.00 | 0.00 | 91 | 1016.1 |
| 20260509144523 | 22 | 234 | 0.0 | 0.0 | 0.00 | 0.00 | 0.00 | 91 | 1016.1 |
| 20260509144020 | 22 | 300 | 0.0 | 1.6 | 0.00 | 0.00 | 0.00 | 91 | 1016.2 |
| 20260509143517 | 23 | 270 | 0.0 | 0.0 | 0.00 | 0.00 | 0.00 | 91 | 1016.2 |
| 20260509143015 | 22 | 254 | 0.0 | 3.2 | 0.00 | 0.00 | 0.00 | 90 | 1016.0 |
| 20260509142510 | 22 | 246 | 0.0 | 4.8 | 0.00 | 0.00 | 0.00 | 90 | 1015.9 |
| 20260509142005 | 22 | 294 | 0.0 | 0.0 | 0.00 | 0.00 | 0.00 | 91 | 1015.8 |
| 20260509141502 | 22 | 105 | 3.2 | 4.8 | 0.00 | 0.00 | 0.00 | 91 | 1015.8 |
| 20260509140959 | 22 | 246 | 0.0 | 1.6 | 0.00 | 0.00 | 0.00 | 91 | 1015.7 |
| 20260509140455 | 22 | 229 | 3.2 | 3.2 | 0.00 | 0.00 | 0.00 | 91 | 1015.7 |
| 20260509135954 | 22 | 261 | 0.0 | 3.2 | 0.00 | 0.00 | 0.00 | 90 | 1015.6 |
| 20260509135451 | 22 | 90 | 0.0 | 3.2 | 0.00 | 0.00 | 0.00 | 91 | 1015.7 |
| 20260509134948 | 22 | 83 | 1.6 | 3.2 | 0.00 | 0.00 | 0.00 | 91 | 1015.6 |
| 20260509134445 | 22 | 81 | 0.0 | 3.2 | 0.00 | 0.00 | 0.00 | 91 | 1015.5 |
| 20260509133943 | 22 | 109 | 0.0 | 3.2 | 0.00 | 0.00 | 0.00 | 91 | 1015.9 |
| 20260509133439 | 22 | 270 | 0.0 | 4.8 | 0.00 | 0.00 | 0.00 | 91 | 1015.8 |
| 20260509132937 | 22 | 103 | 0.0 | 3.2 | 0.00 | 0.00 | 0.00 | 91 | 1015.7 |
| 20260509132435 | 21 | 81 | 0.0 | 0.0 | 0.00 | 0.00 | 0.00 | 91 | 1015.9 |
| 20260509131932 | 21 | 81 | 0.0 | 0.0 | 0.00 | 0.00 | 0.00 | 92 | 1016.0 |
| 20260509131429 | 21 | 120 | 0.0 | 3.2 | 0.00 | 0.00 | 0.00 | 92 | 1015.9 |
| 20260509130926 | 21 | 106 | 0.0 | 1.6 | 0.00 | 0.00 | 0.00 | 92 | 1016.1 |
| 20260509130421 | 21 | 0 | 0.0 | 0.0 | 0.00 | 0.00 | 0.00 | 93 | 1016.0 |
| 20260509125918 | 21 | 0 | 0.0 | 0.0 | 0.00 | 0.00 | 0.00 | 93 | 1016.2 |
| 20260509125415 | 21 | 337 | 0.0 | 0.0 | 0.00 | 0.00 | 0.00 | 93 | 1016.1 |
| 20260509124911 | 21 | 337 | 0.0 | 3.2 | 0.00 | 0.00 | 0.00 | 93 | 1016.1 |
| 20260509124408 | 21 | 157 | 0.0 | 0.0 | 0.00 | 0.00 | 0.00 | 95 | 1016.1 |
| 20260509123906 | 20 | 157 | 0.0 | 0.0 | 0.00 | 0.00 | 0.00 | 97 | 1016.1 |
| 20260509123403 | 20 | 157 | 0.0 | 1.6 | 0.00 | 0.00 | 0.00 | 98 | 1016.0 |
| 20260509122858 | 20 | 270 | 0.0 | 0.0 | 0.00 | 0.00 | 0.00 | 99 | 1016.3 |
| 20260509122355 | 20 | 172 | 0.0 | 0.0 | 0.00 | 0.00 | 0.00 | 99 | 1016.2 |
| 20260509121852 | 20 | 306 | 0.0 | 0.0 | 0.00 | 0.00 | 0.00 | 99 | 1016.1 |
| 20260509121349 | 20 | 306 | 0.0 | 1.6 | 0.00 | 0.00 | 0.00 | 99 | 1016.2 |
| 20260509120848 | 19 | 337 | 0.0 | 1.6 | 0.00 | 0.00 | 0.00 | 99 | 1016.1 |
| 20260509120345 | 19 | 352 | 0.0 | 0.0 | 0.00 | 0.00 | 0.00 | 99 | 1016.2 |
| 20260509115843 | 18 | 261 | 0.0 | 0.0 | 0.00 | 0.00 | 0.00 | 99 | 1016.0 |
| 20260509115340 | 18 | 352 | 0.0 | 1.6 | 0.00 | 0.00 | 0.00 | 99 | 1016.0 |
| 20260509114838 | 18 | 254 | 0.0 | 1.6 | 0.00 | 0.00 | 0.00 | 99 | 1016.1 |
| 20260509114336 | 18 | 331 | 0.0 | 1.6 | 0.00 | 0.00 | 0.00 | 99 | 1015.8 |
| 20260509113835 | 17 | 337 | 0.0 | 0.0 | 0.00 | 0.00 | 0.00 | 99 | 1015.7 |
| 20260509113331 | 17 | 337 | 0.0 | 0.0 | 0.00 | 0.00 | 0.00 | 99 | 1015.9 |
| 20260509112828 | 17 | 337 | 0.0 | 0.0 | 0.00 | 0.00 | 0.00 | 99 | 1015.9 |
| 20260509112326 | 17 | 337 | 0.0 | 0.0 | 0.00 | 0.00 | 0.00 | 99 | 1015.8 |
| 20260509111822 | 17 | 337 | 0.0 | 0.0 | 0.00 | 0.00 | 0.00 | 99 | 1015.5 |
| 20260509111320 | 17 | 270 | 0.0 | 0.0 | 0.00 | 0.00 | 0.00 | 99 | 1015.4 |
| 20260509110817 | 17 | 270 | 0.0 | 1.6 | 0.00 | 0.00 | 0.00 | 99 | 1015.7 |
| 20260509110313 | 17 | 286 | 0.0 | 0.0 | 0.00 | 0.00 | 0.00 | 99 | 1015.7 |
| 20260509105812 | 17 | 294 | 0.0 | 0.0 | 0.00 | 0.00 | 0.00 | 99 | 1015.5 |
| 20260509105309 | 17 | 294 | 0.0 | 0.0 | 0.00 | 0.00 | 0.00 | 99 | 1015.4 |
| 20260509104806 | 17 | 294 | 0.0 | 0.0 | 0.00 | 0.00 | 0.00 | 99 | 1015.2 |
| 20260509104302 | 17 | 294 | 0.0 | 0.0 | 0.00 | 0.00 | 0.00 | 99 | 1015.3 |
| 20260509103800 | 17 | 279 | 0.0 | 0.0 | 0.00 | 0.00 | 0.00 | 99 | 1015.2 |
| 20260509103257 | 17 | 270 | 0.0 | 0.0 | 0.00 | 0.00 | 0.00 | 99 | 1015.1 |
| 20260509102756 | 17 | 270 | 0.0 | 0.0 | 0.00 | 0.00 | 0.00 | 99 | 1015.1 |
| 20260509102253 | 17 | 270 | 0.0 | 0.0 | 0.00 | 0.00 | 0.00 | 99 | 1014.9 |
| 20260509101749 | 17 | 279 | 0.0 | 0.0 | 0.00 | 0.00 | 0.00 | 99 | 1015.1 |
| 20260509101245 | 17 | 279 | 0.0 | 0.0 | 0.00 | 0.00 | 0.00 | 99 | 1015.0 |
| 20260509100743 | 17 | 279 | 0.0 | 0.0 | 0.00 | 0.00 | 0.00 | 99 | 1015.0 |
| 20260509100240 | 17 | 279 | 0.0 | 0.0 | 0.00 | 0.00 | 0.00 | 99 | 1015.0 |
| 20260509095736 | 17 | 279 | 0.0 | 0.0 | 0.00 | 0.00 | 0.00 | 99 | 1015.0 |
| 20260509095234 | 17 | 279 | 0.0 | 0.0 | 0.00 | 0.00 | 0.00 | 99 | 1015.0 |
| 20260509094731 | 17 | 294 | 0.0 | 0.0 | 0.00 | 0.00 | 0.00 | 99 | 1015.2 |
| 20260509094227 | 17 | 294 | 0.0 | 0.0 | 0.00 | 0.00 | 0.00 | 99 | 1015.2 |
| 20260509093725 | 17 | 279 | 0.0 | 0.0 | 0.00 | 0.00 | 0.00 | 99 | 1015.0 |
| 20260509093222 | 17 | 279 | 0.0 | 0.0 | 0.00 | 0.00 | 0.00 | 98 | 1015.0 |
| 20260509092721 | 17 | 279 | 0.0 | 0.0 | 0.00 | 0.00 | 0.00 | 98 | 1015.3 |
| 20260509092219 | 17 | 279 | 0.0 | 0.0 | 0.00 | 0.00 | 0.00 | 98 | 1015.2 |
| 20260509091716 | 17 | 279 | 0.0 | 0.0 | 0.00 | 0.00 | 0.00 | 98 | 1015.0 |
| 20260509091211 | 17 | 279 | 0.0 | 0.0 | 0.00 | 0.00 | 0.00 | 98 | 1015.3 |
| 20260509090710 | 17 | 279 | 0.0 | 0.0 | 0.00 | 0.00 | 0.00 | 98 | 1015.4 |
| 20260509090206 | 17 | 279 | 0.0 | 0.0 | 0.00 | 0.00 | 0.00 | 98 | 1015.3 |
| 20260509085704 | 17 | 279 | 0.0 | 0.0 | 0.00 | 0.00 | 0.00 | 98 | 1015.3 |
| 20260509085201 | 17 | 120 | 0.0 | 0.0 | 0.00 | 0.00 | 0.00 | 98 | 1015.2 |
| 20260509084658 | 17 | 270 | 0.0 | 0.0 | 0.00 | 0.00 | 0.00 | 98 | 1015.1 |
| 20260509084154 | 17 | 270 | 0.0 | 0.0 | 0.00 | 0.00 | 0.00 | 97 | 1015.2 |
| 20260509083653 | 17 | 131 | 0.0 | 0.0 | 0.00 | 0.00 | 0.00 | 97 | 1015.0 |
| 20260509083148 | 17 | 123 | 3.2 | 6.4 | 0.00 | 0.00 | 0.00 | 98 | 1015.0 |
| 20260509082646 | 17 | 270 | 0.0 | 0.0 | 0.00 | 0.00 | 0.00 | 98 | 1015.6 |
| 20260509082142 | 17 | 270 | 0.0 | 0.0 | 0.00 | 0.00 | 0.00 | 97 | 1015.6 |
| 20260509081640 | 17 | 270 | 0.0 | 1.6 | 0.00 | 0.00 | 0.00 | 97 | 1015.6 |
| 20260509081137 | 17 | 120 | 0.0 | 0.0 | 0.00 | 0.00 | 0.00 | 97 | 1015.6 |
| 20260509080635 | 17 | 120 | 0.0 | 0.0 | 0.00 | 0.00 | 0.00 | 97 | 1015.4 |
| 20260509080133 | 17 | 120 | 0.0 | 0.0 | 0.00 | 0.00 | 0.00 | 97 | 1015.3 |
| 20260509075631 | 17 | 120 | 0.0 | 0.0 | 0.00 | 0.00 | 0.00 | 97 | 1015.7 |
| 20260509075128 | 17 | 120 | 0.0 | 3.2 | 0.00 | 0.00 | 0.00 | 97 | 1015.8 |
| 20260509074624 | 17 | 279 | 0.0 | 0.0 | 0.00 | 0.00 | 0.00 | 97 | 1015.8 |
| 20260509074121 | 17 | 279 | 0.0 | 0.0 | 0.00 | 0.00 | 0.00 | 97 | 1015.9 |
| 20260509073618 | 17 | 279 | 0.0 | 1.6 | 0.00 | 0.00 | 0.00 | 97 | 1015.8 |
| 20260509073114 | 17 | 258 | 0.0 | 0.0 | 0.00 | 0.00 | 0.00 | 97 | 1015.3 |
| 20260509072611 | 17 | 291 | 0.0 | 0.0 | 0.00 | 0.00 | 0.00 | 97 | 1015.2 |
| 20260509072108 | 17 | 291 | 0.0 | 0.0 | 0.00 | 0.00 | 0.00 | 97 | 1015.3 |
| 20260509071604 | 17 | 8 | 0.0 | 0.0 | 0.00 | 0.00 | 0.00 | 97 | 1015.4 |
| 20260509071102 | 17 | 276 | 0.0 | 3.2 | 0.00 | 0.00 | 0.00 | 96 | 1015.4 |
| 20260509070559 | 17 | 264 | 0.0 | 3.2 | 0.00 | 0.00 | 0.00 | 96 | 1015.4 |
| 20260509070055 | 18 | 99 | 0.0 | 1.6 | 0.00 | 0.00 | 0.00 | 96 | 1015.6 |
| 20260509065550 | 17 | 291 | 0.0 | 0.0 | 0.00 | 0.00 | 0.00 | 96 | 1015.6 |
| 20260509065047 | 18 | 291 | 0.0 | 1.6 | 0.00 | 0.00 | 0.00 | 95 | 1015.9 |
| 20260509064544 | 18 | 331 | 1.6 | 1.6 | 0.00 | 0.00 | 0.00 | 95 | 1015.8 |
| 20260509064043 | 18 | 132 | 3.2 | 4.8 | 0.00 | 0.00 | 0.00 | 95 | 1015.5 |
| 20260509063538 | 18 | 112 | 0.0 | 3.2 | 0.00 | 0.00 | 0.00 | 96 | 1016.2 |
| 20260509063035 | 18 | 132 | 0.0 | 3.2 | 0.00 | 0.00 | 0.00 | 96 | 1016.7 |
| 20260509062532 | 18 | 276 | 4.8 | 4.8 | 0.00 | 0.00 | 0.00 | 96 | 1017.1 |
| 20260509062030 | 18 | 270 | 0.0 | 4.8 | 0.00 | 0.00 | 0.00 | 95 | 1016.3 |
| 20260509061526 | 18 | 81 | 0.0 | 0.0 | 0.00 | 0.00 | 0.00 | 95 | 1016.1 |
| 20260509061024 | 18 | 106 | 1.6 | 3.2 | 0.00 | 0.00 | 0.00 | 95 | 1016.2 |
| 20260509060521 | 18 | 257 | 0.0 | 3.2 | 0.00 | 0.00 | 0.00 | 95 | 1016.6 |
| 20260509060017 | 18 | 145 | 1.6 | 3.2 | 0.00 | 0.00 | 0.00 | 95 | 1016.4 |
| 20260509055512 | 18 | 261 | 0.0 | 0.0 | 0.00 | 0.00 | 0.00 | 95 | 1016.7 |
| 20260509055009 | 17 | 261 | 0.0 | 1.6 | 0.00 | 0.00 | 0.00 | 95 | 1016.9 |
| 20260509054505 | 18 | 300 | 0.0 | 1.6 | 0.00 | 0.00 | 0.00 | 95 | 1016.8 |
| 20260509054004 | 18 | 279 | 0.0 | 0.0 | 0.00 | 0.00 | 0.00 | 94 | 1016.3 |
| 20260509053502 | 18 | 157 | 1.6 | 3.2 | 0.00 | 0.00 | 0.00 | 94 | 1016.4 |
| 20260509052958 | 17 | 81 | 0.0 | 3.2 | 0.00 | 0.00 | 0.00 | 94 | 1016.5 |
| 20260509052456 | 17 | 90 | 0.0 | 3.2 | 0.00 | 0.00 | 0.00 | 94 | 1016.7 |
| 20260509051954 | 17 | 106 | 0.0 | 0.0 | 0.00 | 0.00 | 0.00 | 94 | 1017.3 |
| 20260509051451 | 17 | 99 | 0.0 | 6.4 | 0.00 | 0.00 | 0.00 | 94 | 1016.9 |
| 20260509050948 | 17 | 123 | 3.2 | 4.8 | 0.00 | 0.00 | 0.00 | 95 | 1017.3 |
| 20260509050445 | 17 | 279 | 0.0 | 0.0 | 0.00 | 0.00 | 0.00 | 95 | 1017.6 |
| 20260509045941 | 17 | 279 | 0.0 | 0.0 | 0.00 | 0.00 | 0.00 | 95 | 1017.7 |
| 20260509045439 | 17 | 279 | 0.0 | 0.0 | 0.00 | 0.00 | 0.00 | 95 | 1017.6 |
| 20260509044935 | 17 | 279 | 0.0 | 0.0 | 0.00 | 0.00 | 0.00 | 96 | 1018.0 |
| 20260509044434 | 17 | 278 | 0.0 | 0.0 | 0.00 | 0.00 | 0.00 | 96 | 1018.0 |
| 20260509043931 | 17 | 282 | 3.2 | 3.2 | 0.00 | 0.00 | 0.00 | 95 | 1018.0 |
| 20260509043426 | 17 | 285 | 1.6 | 3.2 | 0.00 | 0.00 | 0.00 | 95 | 1017.8 |
| 20260509042922 | 17 | 270 | 0.0 | 1.6 | 0.00 | 0.00 | 0.00 | 95 | 1017.4 |
| 20260509042419 | 17 | 117 | 0.0 | 0.0 | 0.00 | 0.00 | 0.00 | 95 | 1017.2 |
| 20260509041915 | 17 | 90 | 0.0 | 1.6 | 0.00 | 0.00 | 0.00 | 95 | 1017.6 |
| 20260509041412 | 17 | 151 | 0.0 | 1.6 | 0.00 | 0.00 | 0.00 | 95 | 1017.9 |
| 20260509040910 | 17 | 270 | 0.0 | 0.0 | 0.00 | 0.00 | 0.00 | 95 | 1018.0 |
| 20260509040408 | 17 | 270 | 0.0 | 0.0 | 0.00 | 0.00 | 0.00 | 95 | 1018.6 |
| 20260509035905 | 17 | 286 | 0.0 | 1.6 | 0.00 | 0.00 | 0.00 | 95 | 1018.3 |
| 20260509035402 | 17 | 270 | 0.0 | 1.6 | 0.00 | 0.00 | 0.00 | 95 | 1018.4 |
| 20260509034858 | 17 | 254 | 0.0 | 0.0 | 0.00 | 0.00 | 0.00 | 95 | 1018.3 |
| 20260509034356 | 17 | 270 | 0.0 | 1.6 | 0.00 | 0.00 | 0.00 | 95 | 1018.4 |
| 20260509033853 | 17 | 270 | 0.0 | 0.0 | 0.00 | 0.00 | 0.00 | 95 | 1018.4 |
| 20260509033350 | 17 | 270 | 0.0 | 0.0 | 0.00 | 0.00 | 0.00 | 95 | 1018.6 |
| 20260509032846 | 17 | 270 | 0.0 | 0.0 | 0.00 | 0.00 | 0.00 | 95 | 1018.5 |
| 20260509032343 | 17 | 270 | 0.0 | 0.0 | 0.00 | 0.00 | 0.00 | 94 | 1018.3 |
| 20260509031842 | 17 | 270 | 0.0 | 0.0 | 0.00 | 0.00 | 0.00 | 94 | 1018.5 |
| 20260509031339 | 17 | 270 | 0.0 | 1.6 | 0.00 | 0.00 | 0.00 | 94 | 1018.7 |
| 20260509030836 | 17 | 270 | 0.0 | 0.0 | 0.00 | 0.00 | 0.00 | 94 | 1018.4 |
| 20260509030334 | 17 | 270 | 0.0 | 0.0 | 0.00 | 0.00 | 0.00 | 94 | 1018.6 |
| 20260509025831 | 17 | 270 | 0.0 | 0.0 | 0.00 | 0.00 | 0.00 | 94 | 1018.7 |
| 20260509025326 | 17 | 270 | 0.0 | 1.6 | 0.00 | 0.00 | 0.00 | 94 | 1018.7 |
| 20260509024821 | 17 | 270 | 0.0 | 1.6 | 0.00 | 0.00 | 0.00 | 94 | 1018.4 |
| 20260509024318 | 17 | 111 | 0.0 | 0.0 | 0.00 | 0.00 | 0.00 | 94 | 1018.1 |
| 20260509023815 | 17 | 270 | 0.0 | 0.0 | 0.00 | 0.00 | 0.00 | 94 | 1018.2 |
| 20260509023313 | 17 | 279 | 0.0 | 0.0 | 0.00 | 0.00 | 0.00 | 94 | 1018.3 |
| 20260509022809 | 17 | 270 | 0.0 | 0.0 | 0.00 | 0.00 | 0.00 | 93 | 1018.2 |
| 20260509022307 | 17 | 270 | 0.0 | 0.0 | 0.00 | 0.00 | 0.00 | 93 | 1018.3 |
| 20260509021803 | 17 | 270 | 0.0 | 0.0 | 0.00 | 0.00 | 0.00 | 93 | 1018.4 |
| 20260509021300 | 17 | 270 | 0.0 | 0.0 | 0.00 | 0.00 | 0.00 | 93 | 1018.3 |
| 20260509020758 | 17 | 270 | 0.0 | 0.0 | 0.00 | 0.00 | 0.00 | 92 | 1018.3 |
| 20260509020255 | 17 | 270 | 0.0 | 0.0 | 0.00 | 0.00 | 0.00 | 92 | 1018.3 |
| 20260509015753 | 17 | 270 | 0.0 | 0.0 | 0.00 | 0.00 | 0.00 | 92 | 1018.3 |
| 20260509015251 | 17 | 270 | 0.0 | 0.0 | 0.00 | 0.00 | 0.00 | 92 | 1018.2 |
| 20260509014747 | 17 | 270 | 0.0 | 1.6 | 0.00 | 0.00 | 0.00 | 91 | 1018.3 |
| 20260509014244 | 17 | 270 | 0.0 | 1.6 | 0.00 | 0.00 | 0.00 | 91 | 1018.0 |
| 20260509013741 | 17 | 278 | 1.6 | 1.6 | 0.00 | 0.00 | 0.00 | 91 | 1018.1 |
| 20260509013236 | 17 | 270 | 0.0 | 0.0 | 0.00 | 0.00 | 0.00 | 90 | 1018.1 |
| 20260509012733 | 17 | 279 | 0.0 | 0.0 | 0.00 | 0.00 | 0.00 | 90 | 1018.1 |
| 20260509012230 | 17 | 279 | 0.0 | 0.0 | 0.00 | 0.00 | 0.00 | 90 | 1018.0 |
| 20260509011727 | 17 | 279 | 0.0 | 0.0 | 0.00 | 0.00 | 0.00 | 90 | 1018.1 |
| 20260509011225 | 17 | 279 | 0.0 | 0.0 | 0.00 | 0.00 | 0.00 | 89 | 1018.0 |
| 20260509010723 | 17 | 279 | 0.0 | 0.0 | 0.00 | 0.00 | 0.00 | 89 | 1017.9 |
| 20260509010219 | 17 | 279 | 0.0 | 0.0 | 0.00 | 0.00 | 0.00 | 88 | 1017.9 |
| 20260509005716 | 17 | 286 | 0.0 | 1.6 | 0.00 | 0.00 | 0.00 | 87 | 1017.9 |
| 20260509005213 | 18 | 270 | 0.0 | 0.0 | 0.00 | 0.00 | 0.00 | 87 | 1017.9 |
| 20260509004708 | 18 | 117 | 0.0 | 0.0 | 0.00 | 0.00 | 0.00 | 86 | 1018.0 |
| 20260509004206 | 18 | 117 | 0.0 | 3.2 | 0.00 | 0.00 | 0.00 | 85 | 1017.9 |
| 20260509003704 | 18 | 133 | 0.0 | 0.0 | 0.00 | 0.00 | 0.00 | 85 | 1017.6 |
| 20260509003201 | 18 | 171 | 3.2 | 3.2 | 0.00 | 0.00 | 0.00 | 85 | 1017.6 |
| 20260509002658 | 18 | 157 | 0.0 | 3.2 | 0.00 | 0.00 | 0.00 | 85 | 1017.5 |
| 20260509002155 | 18 | 105 | 0.0 | 4.8 | 0.00 | 0.00 | 0.00 | 84 | 1017.5 |
| 20260509001653 | 18 | 135 | 0.0 | 3.2 | 0.00 | 0.00 | 0.00 | 84 | 1017.5 |
| 20260509001148 | 18 | 99 | 0.0 | 3.2 | 0.00 | 0.00 | 0.00 | 84 | 1017.8 |
| 20260509000647 | 18 | 90 | 1.6 | 4.8 | 0.00 | 0.00 | 0.00 | 83 | 1017.9 |
| 20260509000144 | 18 | 103 | 0.0 | 4.8 | 0.00 | 0.00 | 0.00 | 83 | 1017.4 |
| 20260508235641 | 18 | 121 | 0.0 | 6.4 | 0.00 | 0.00 | 0.00 | 83 | 1017.4 |
| 20260508235137 | 18 | 103 | 1.6 | 9.7 | 0.00 | 0.00 | 0.00 | 82 | 1017.2 |
| 20260508234635 | 18 | 130 | 0.0 | 11.3 | 0.00 | 0.00 | 0.00 | 82 | 1017.3 |
| 20260508234131 | 18 | 140 | 3.2 | 4.8 | 0.00 | 0.00 | 0.00 | 82 | 1017.2 |
| 20260508233631 | 18 | 144 | 0.0 | 4.8 | 0.00 | 0.00 | 0.00 | 82 | 1017.3 |
| 20260508233128 | 18 | 90 | 0.0 | 4.8 | 0.00 | 0.00 | 0.00 | 81 | 1017.4 |
| 20260508232625 | 18 | 83 | 1.6 | 4.8 | 0.00 | 0.00 | 0.00 | 81 | 1017.5 |
| 20260508232121 | 18 | 114 | 0.0 | 1.6 | 0.00 | 0.00 | 0.00 | 81 | 1017.4 |
| 20260508231619 | 18 | 123 | 0.0 | 3.2 | 0.00 | 0.00 | 0.00 | 81 | 1017.5 |
| 20260508231116 | 18 | 150 | 0.0 | 4.8 | 0.00 | 0.00 | 0.00 | 80 | 1017.5 |
| 20260508230612 | 18 | 135 | 4.8 | 6.4 | 0.00 | 0.00 | 0.00 | 80 | 1017.5 |
| 20260508230109 | 18 | 96 | 1.6 | 8.0 | 0.00 | 0.00 | 0.00 | 80 | 1017.5 |
| 20260508225607 | 19 | 114 | 1.6 | 3.2 | 0.00 | 0.00 | 0.00 | 80 | 1017.3 |
| 20260508225103 | 19 | 234 | 1.6 | 8.0 | 0.00 | 0.00 | 0.00 | 80 | 1017.3 |
| 20260508224601 | 19 | 131 | 3.2 | 6.4 | 0.00 | 0.00 | 0.00 | 80 | 1017.5 |
| 20260508224058 | 19 | 90 | 0.0 | 8.0 | 0.00 | 0.00 | 0.00 | 79 | 1017.3 |
| 20260508223556 | 19 | 69 | 1.6 | 4.8 | 0.00 | 0.00 | 0.00 | 78 | 1017.3 |
| 20260508223053 | 19 | 90 | 0.0 | 8.0 | 0.00 | 0.00 | 0.00 | 78 | 1017.1 |
| 20260508222550 | 19 | 121 | 3.2 | 6.4 | 0.00 | 0.00 | 0.00 | 78 | 1017.3 |
| 20260508222047 | 19 | 112 | 3.2 | 6.4 | 0.00 | 0.00 | 0.00 | 77 | 1017.3 |
| 20260508221543 | 19 | 90 | 0.0 | 14.5 | 0.00 | 0.00 | 0.00 | 77 | 1017.5 |
| 20260508221039 | 19 | 111 | 1.6 | 8.0 | 0.00 | 0.00 | 0.00 | 76 | 1017.6 |
| 20260508220536 | 19 | 110 | 3.2 | 9.7 | 0.00 | 0.00 | 0.00 | 77 | 1017.4 |
| 20260508220032 | 20 | 101 | 0.0 | 6.4 | 0.00 | 0.00 | 0.00 | 76 | 1017.4 |
| 20260508215529 | 20 | 96 | 1.6 | 6.4 | 0.00 | 0.00 | 0.00 | 75 | 1017.4 |
| 20260508215026 | 20 | 103 | 4.8 | 14.5 | 0.00 | 0.00 | 0.00 | 74 | 1017.3 |
| 20260508214524 | 20 | 188 | 6.4 | 11.3 | 0.00 | 0.00 | 0.00 | 71 | 1017.1 |
| 20260508214019 | 20 | 14 | 1.6 | 8.0 | 0.00 | 0.00 | 0.00 | 72 | 1017.4 |
| 20260508213517 | 20 | 108 | 3.2 | 8.0 | 0.00 | 0.00 | 0.00 | 74 | 1017.4 |
| 20260508213013 | 20 | 135 | 6.4 | 9.7 | 0.00 | 0.00 | 0.00 | 74 | 1017.6 |
| 20260508212509 | 20 | 125 | 6.4 | 9.7 | 0.00 | 0.00 | 0.00 | 74 | 1017.6 |
| 20260508212006 | 20 | 120 | 8.0 | 11.3 | 0.00 | 0.00 | 0.00 | 75 | 1017.7 |
| 20260508211501 | 20 | 111 | 4.8 | 11.3 | 0.00 | 0.00 | 0.00 | 74 | 1017.6 |
| 20260508210958 | 20 | 144 | 8.0 | 16.1 | 0.00 | 0.00 | 0.00 | 74 | 1017.6 |
| 20260508210454 | 20 | 135 | 3.2 | 8.0 | 0.00 | 0.00 | 0.00 | 74 | 1017.3 |
| 20260508205951 | 20 | 45 | 0.0 | 6.4 | 0.00 | 0.00 | 0.00 | 75 | 1017.4 |
| 20260508205448 | 20 | 130 | 4.8 | 8.0 | 0.00 | 0.00 | 0.00 | 74 | 1017.3 |
| 20260508204944 | 20 | 126 | 4.8 | 8.0 | 0.00 | 0.00 | 0.00 | 74 | 1017.5 |
| 20260508204442 | 20 | 116 | 4.8 | 11.3 | 0.00 | 0.00 | 0.00 | 73 | 1017.4 |
| 20260508203937 | 20 | 143 | 4.8 | 14.5 | 0.00 | 0.00 | 0.00 | 73 | 1017.7 |
| 20260508203434 | 20 | 161 | 3.2 | 9.7 | 0.00 | 0.00 | 0.00 | 72 | 1017.3 |
| 20260508202929 | 20 | 331 | 0.0 | 8.0 | 0.00 | 0.00 | 0.00 | 70 | 1017.2 |
| 20260508202427 | 20 | 122 | 4.8 | 9.7 | 0.00 | 0.00 | 0.00 | 72 | 1017.3 |
| 20260508201924 | 20 | 170 | 3.2 | 14.5 | 0.00 | 0.00 | 0.00 | 71 | 1017.4 |
| 20260508201421 | 20 | 138 | 11.3 | 17.7 | 0.00 | 0.00 | 0.00 | 71 | 1017.6 |
| 20260508200918 | 20 | 132 | 6.4 | 12.9 | 0.00 | 0.00 | 0.00 | 71 | 1017.9 |
| 20260508200415 | 20 | 116 | 4.8 | 11.3 | 0.00 | 0.00 | 0.00 | 69 | 1017.8 |
| 20260508195910 | 20 | 128 | 6.4 | 14.5 | 0.00 | 0.00 | 0.00 | 67 | 1017.9 |
| 20260508195407 | 21 | 137 | 6.4 | 8.0 | 0.00 | 0.00 | 0.00 | 67 | 1017.9 |
| 20260508194903 | 21 | 122 | 8.0 | 16.1 | 0.00 | 0.00 | 0.00 | 69 | 1018.1 |
| 20260508194400 | 20 | 216 | 3.2 | 14.5 | 0.00 | 0.00 | 0.00 | 69 | 1018.3 |
| 20260508193857 | 20 | 142 | 3.2 | 20.9 | 0.00 | 0.00 | 0.00 | 69 | 1018.0 |
| 20260508193354 | 21 | 116 | 6.4 | 22.5 | 0.00 | 0.00 | 0.00 | 68 | 1018.0 |
| 20260508192850 | 21 | 107 | 8.0 | 16.1 | 0.00 | 0.00 | 0.00 | 69 | 1017.8 |
| 20260508192347 | 20 | 118 | 11.3 | 20.9 | 0.00 | 0.00 | 0.00 | 71 | 1017.9 |
| 20260508191844 | 20 | 125 | 9.7 | 17.7 | 0.00 | 0.00 | 0.00 | 69 | 1017.9 |
| 20260508191342 | 21 | 222 | 4.8 | 11.3 | 0.00 | 0.00 | 0.00 | 68 | 1018.1 |
| 20260508190838 | 21 | 56 | 3.2 | 19.3 | 0.00 | 0.00 | 0.00 | 68 | 1017.8 |
| 20260508190335 | 21 | 102 | 4.8 | 11.3 | 0.00 | 0.00 | 0.00 | 68 | 1018.0 |
| 20260508185831 | 21 | 153 | 0.0 | 16.1 | 0.00 | 0.00 | 0.00 | 68 | 1018.1 |
| 20260508185329 | 21 | 114 | 6.4 | 19.3 | 0.00 | 0.00 | 0.00 | 67 | 1018.2 |
| 20260508184826 | 22 | 110 | 4.8 | 8.0 | 0.00 | 0.00 | 0.00 | 66 | 1018.1 |
| 20260508184323 | 22 | 119 | 12.9 | 14.5 | 0.00 | 0.00 | 0.00 | 66 | 1018.1 |
| 20260508183820 | 23 | 112 | 4.8 | 11.3 | 0.00 | 0.00 | 0.00 | 63 | 1018.1 |
| 20260508183317 | 23 | 158 | 6.4 | 17.7 | 0.00 | 0.00 | 0.00 | 63 | 1018.1 |
| 20260508182812 | 23 | 195 | 1.6 | 8.0 | 0.00 | 0.00 | 0.00 | 63 | 1018.4 |
| 20260508182310 | 22 | 119 | 3.2 | 16.1 | 0.00 | 0.00 | 0.00 | 63 | 1018.3 |
| 20260508181805 | 22 | 236 | 4.8 | 19.3 | 0.00 | 0.00 | 0.00 | 64 | 1018.4 |
| 20260508181302 | 22 | 230 | 4.8 | 17.7 | 0.00 | 0.00 | 0.00 | 63 | 1018.4 |
| 20260508180759 | 23 | 123 | 8.0 | 8.0 | 0.00 | 0.00 | 0.00 | 63 | 1018.4 |
| 20260508180256 | 22 | 141 | 0.0 | 11.3 | 0.00 | 0.00 | 0.00 | 63 | 1018.5 |
| 20260508175752 | 22 | 139 | 6.4 | 14.5 | 0.00 | 0.00 | 0.00 | 63 | 1018.6 |
| 20260508175249 | 22 | 137 | 11.3 | 14.5 | 0.00 | 0.00 | 0.00 | 61 | 1018.8 |
| 20260508174747 | 22 | 148 | 8.0 | 14.5 | 0.00 | 0.00 | 0.00 | 62 | 1018.6 |
| 20260508174244 | 22 | 93 | 6.4 | 12.9 | 0.00 | 0.00 | 0.00 | 63 | 1018.8 |
| 20260508173741 | 23 | 132 | 6.4 | 12.9 | 0.00 | 0.00 | 0.00 | 61 | 1018.6 |
| 20260508173236 | 22 | 51 | 3.2 | 12.9 | 0.00 | 0.00 | 0.00 | 61 | 1018.9 |
| 20260508172733 | 23 | 118 | 9.7 | 17.7 | 0.00 | 0.00 | 0.00 | 62 | 1018.8 |
| 20260508172230 | 23 | 330 | 3.2 | 11.3 | 0.00 | 0.00 | 0.00 | 60 | 1018.7 |
| 20260508171727 | 23 | 297 | 1.6 | 9.7 | 0.00 | 0.00 | 0.00 | 58 | 1018.9 |
| 20260508171223 | 23 | 99 | 0.0 | 6.4 | 0.00 | 0.00 | 0.00 | 56 | 1019.1 |
| 20260508170720 | 23 | 203 | 0.0 | 4.8 | 0.00 | 0.00 | 0.00 | 56 | 1019.0 |
| 20260508170218 | 22 | 82 | 0.0 | 9.7 | 0.00 | 0.00 | 0.00 | 58 | 1018.8 |
| 20260508165714 | 22 | 137 | 6.4 | 12.9 | 0.00 | 0.00 | 0.00 | 56 | 1018.7 |
| 20260508165212 | 23 | 138 | 8.0 | 8.0 | 0.00 | 0.00 | 0.00 | 53 | 1018.9 |
| 20260508164708 | 24 | 334 | 0.0 | 6.4 | 0.00 | 0.00 | 0.00 | 55 | 1018.9 |
| 20260508164205 | 24 | 194 | 0.0 | 4.8 | 0.00 | 0.00 | 0.00 | 55 | 1018.9 |
| 20260508163703 | 23 | 345 | 0.0 | 8.0 | 0.00 | 0.00 | 0.00 | 56 | 1019.0 |
| 20260508163200 | 23 | 126 | 0.0 | 6.4 | 0.00 | 0.00 | 0.00 | 57 | 1019.3 |
| 20260508162655 | 22 | 61 | 4.8 | 4.8 | 0.00 | 0.00 | 0.00 | 59 | 1019.3 |